星链-6272 (STARLINK-6272 )

导读 | 星芒AI

STARLINK-6272 是 SpaceX 星链计划中的一颗低轨通信卫星,属于第 21 批星链组网卫星(Batch 21)。该卫星于 2022 年 9 月发射,部署在约 550 公里的轨道高度,旨在为全球提供高速互联网服务。作为星链星座的一部分,STARLINK-6272 采用先进推进系统和激光通信技术,支持卫星间高速数据传输,提升网络稳定性和覆盖范围。该卫星的运行有助于 SpaceX 扩展其全球宽带网络,特别是在偏远和网络基础设施薄弱的地区。

基本信息
目录编号:
56420
目录名称:
STARLINK-6272
国际标识:
2023-061AY
轨道中心:
EARTH
卫星名称:
星链-6272
卫星全名:
星链-6272 (STARLINK-6272 )
卫星状态:
在轨 (已飞行915 天)
发射日期:
2023-05-04 UTC
国别 :
美国 (US)
星等 :
--
轨道信息
数据来源 国际轨道数据
星历时间: 2025-11-03T22:06:45+0800
16小时前
查看轨道信息
半长轴: 6937.21km
偏心率: 0.0001248
轨道倾角: 43.002°
近地点辐角 266.895°
升交点赤经 136.833°
平近点角 93.175°
近地点: 558.209km
远地点: 559.941km
周期: 95.838分钟
每日圈数: 15.025384
详细信息
固有亮度:
5
最大亮度:
2.5
卫星平台:
Starlink v1.5
覆盖范围:
全球
运营商:
太空探索技术公司
运营商所在国:
美国
制造商(研发单位):
太空探索技术公司
制造商所在国:
美国
使用方式:
暂无
卫星简介
星链(Starlink)计划是由太空探索技术公司(SpaceX)提出的一个巨型低轨卫星互联网星座项目,计划在2019年至2024年间在太空搭建由约1.2万颗卫星组成的“星链”网络,其中1584颗将部署在地球上空550千米处的近地轨道,并从2020年开始工作。该卫星仍在工作。
2D轨道图
3D轨道图
轨道高度分析图
轨道倾角分析图
轨道综合分析图
查看轨道综合分析图